Weather History for KGEV - January, 2001

Change the Weather History Date:

Wednesday, January 10, 2001

  Actual Average Record
Temperature  
Mean Temperature 34 °F -  
Max Temperature 46 °F 38 °F 66 °F (1974)
Min Temperature 21 °F 19 °F -15 °F (1970)
Degree Days  
Heating Degree Days 32    
Moisture  
Dew Point 2 °F    
Average Humidity 27    
Maximum Humidity 39    
Minimum Humidity 16    
Precipitation  
Precipitation 0.00 in - - ()
Sea Level Pressure  
Sea Level Pressure 30.15 in    
Wind  
Wind Speed 16 mph (NW)    
Max Wind Speed 37 mph    
Max Gust Speed 46 mph    
Visibility 10 miles    
Events      
Averages and records for this station are not official NWS values.
T = Trace of Precipitation, MM = Missing Value Source: NWS Daily Summary

Daily Weather History Graph

Daily Weather History Graph

Search for Another Location

Airport or City:

Trip Planner

Search our weather history database for the weather conditions in past years. The results will help you decide how hot, cold, wet, or windy it might be!

Date:

Astronomy

Jan. 10, 2001 Rise Set
Actual Time 7:37 AM EST 5:29 PM EST
Civil Twilight 7:09 AM EST 5:57 PM EST
Nautical Twilight 6:37 AM EST 6:29 PM EST
Astronomical Twilight 6:06 AM EST 7:00 PM EST
Moon 6:39 PM EST (1/10) 8:22 AM EST (1/10)
Length of Visible Light 10h 48m
Length of Day
9h 51m
Full, 99% of the Moon is Illuminated
Jan 10
Full
Jan 16
Last Quarter
Jan 24
New
Feb 1
First Quarter
Feb 8
Full

Hourly Weather History & Observations

Time (EST) Temp. Windchill Dew Point Humidity Pressure Visibility Wind Dir Wind Speed Gust Speed Precip Events Conditions
12:17 AM 21.2 °F 6.8 °F -0.4 °F 39% 30.07 in 10.0 mi NW 17.3 mph 24.2 mph N/A   Clear
12:37 AM 21.2 °F 5.6 °F -2.2 °F 36% 30.06 in 10.0 mi NW 20.7 mph 38.0 mph N/A   Clear
12:57 AM 23.0 °F 8.0 °F -2.2 °F 33% 30.06 in 10.0 mi NW 20.7 mph 38.0 mph N/A   Clear
1:17 AM 23.0 °F 13.9 °F -2.2 °F 33% 30.08 in 10.0 mi NW 8.1 mph 32.2 mph N/A   Clear
1:37 AM 21.2 °F 7.3 °F -0.4 °F 39% 30.08 in 10.0 mi NW 16.1 mph 27.6 mph N/A   Clear
1:57 AM 21.2 °F 6.0 °F -0.4 °F 39% 30.07 in 10.0 mi NW 19.6 mph 29.9 mph N/A   Clear
2:17 AM 23.0 °F 4.6 °F -2.2 °F 33% 30.03 in 10.0 mi NW 33.4 mph 43.7 mph N/A   Clear
2:37 AM 23.0 °F 4.4 °F -2.2 °F 33% 30.03 in 10.0 mi NW 34.5 mph 44.9 mph N/A   Clear
2:57 AM 23.0 °F 3.9 °F -2.2 °F 33% 30.02 in 10.0 mi NW 36.8 mph 46.0 mph N/A   Clear
3:17 AM 23.0 °F 5.7 °F -2.2 °F 33% 30.05 in 10.0 mi NW 28.8 mph 42.6 mph N/A   Clear
3:37 AM 23.0 °F 6.9 °F -2.2 °F 33% 30.07 in 10.0 mi NW 24.2 mph 39.1 mph N/A   Clear
3:57 AM 23.0 °F 6.9 °F -2.2 °F 33% 30.06 in 10.0 mi NW 24.2 mph 38.0 mph N/A   Clear
4:17 AM 23.0 °F 5.4 °F -4.0 °F 31% 30.06 in 10.0 mi NW 29.9 mph 39.1 mph N/A   Clear
4:37 AM 23.0 °F 6.3 °F -4.0 °F 31% 30.06 in 10.0 mi NW 26.5 mph 34.5 mph N/A   Clear
4:57 AM 24.8 °F 10.0 °F -4.0 °F 28% 30.07 in 10.0 mi NW 21.9 mph 36.8 mph N/A   Clear
5:17 AM 26.6 °F 12.7 °F -4.0 °F 26% 30.08 in 10.0 mi NW 20.7 mph 39.1 mph N/A   Clear
5:37 AM 26.6 °F 10.8 °F -4.0 °F 26% 30.08 in 10.0 mi NW 27.6 mph 41.4 mph N/A   Clear
5:57 AM 26.6 °F 11.4 °F -4.0 °F 26% 30.08 in 10.0 mi NW 25.3 mph 39.1 mph N/A   Clear
6:17 AM 28.4 °F 13.3 °F -4.0 °F 25% 30.11 in 10.0 mi NW 27.6 mph 43.7 mph N/A   Clear
6:37 AM 28.4 °F 14.4 °F -4.0 °F 25% 30.12 in 10.0 mi NW 23.0 mph 33.4 mph N/A   Clear
6:57 AM 28.4 °F 14.4 °F -4.0 °F 25% 30.14 in 10.0 mi NW 23.0 mph 33.4 mph N/A   Clear
7:17 AM 28.4 °F 15.4 °F -4.0 °F 25% 30.16 in 10.0 mi WNW 19.6 mph 34.5 mph N/A   Clear
7:37 AM 28.4 °F 14.7 °F -4.0 °F 25% 30.18 in 10.0 mi NW 21.9 mph 29.9 mph N/A   Clear
7:57 AM 28.4 °F 17.0 °F -5.8 °F 23% 30.19 in 10.0 mi WNW 15.0 mph 35.7 mph N/A   Clear
8:17 AM 30.2 °F 18.1 °F -5.8 °F 21% 30.18 in 10.0 mi NW 18.4 mph 27.6 mph N/A   Clear
8:37 AM 32.0 °F 24.8 °F -5.8 °F 20% 30.19 in 10.0 mi SSW 8.1 mph 21.9 mph N/A   Clear
8:57 AM 28.4 °F 22.2 °F -2.2 °F 27% 30.21 in 10.0 mi ESE 5.8 mph - N/A   Clear
9:17 AM 28.4 °F 24.6 °F -4.0 °F 25% 30.21 in 10.0 mi SSW 3.5 mph - N/A   Clear
9:37 AM 30.2 °F - -5.8 °F 21% 30.23 in 10.0 mi Calm Calm - N/A   Clear
9:57 AM 30.2 °F 21.3 °F -4.0 °F 23% 30.23 in 10.0 mi West 10.4 mph - N/A   Clear
10:17 AM 30.2 °F 22.6 °F -2.2 °F 25% 30.25 in 10.0 mi West 8.1 mph - N/A   Clear
10:37 AM 32.0 °F 23.6 °F -2.2 °F 23% 30.26 in 10.0 mi West 10.4 mph - N/A   Clear
10:57 AM 32.0 °F 23.0 °F -0.4 °F 25% 30.26 in 10.0 mi West 11.5 mph - N/A   Clear
11:17 AM 32.0 °F 23.0 °F -0.4 °F 25% 30.24 in 10.0 mi WNW 11.5 mph - N/A   Clear
11:37 AM 35.6 °F 29.9 °F -0.4 °F 22% 30.23 in 10.0 mi WNW 6.9 mph - N/A   Clear
11:57 AM 37.4 °F 34.9 °F -2.2 °F 19% 30.23 in 10.0 mi ESE 3.5 mph - N/A   Clear
12:17 PM 41.0 °F 35.8 °F -2.2 °F 16% 30.22 in 10.0 mi WNW 8.1 mph 16.1 mph N/A   Clear
12:37 PM 41.0 °F 37.1 °F -0.4 °F 18% 30.21 in 10.0 mi NNW 5.8 mph - N/A   Clear
12:57 PM 41.0 °F 38.0 °F 5.0 °F 23% 30.20 in 10.0 mi NNW 4.6 mph - N/A   Clear
1:17 PM 42.8 °F 41.1 °F 5.0 °F 21% 30.20 in 10.0 mi NNW 3.5 mph - N/A   Clear
1:37 PM 42.8 °F 39.3 °F 5.0 °F 21% 30.19 in 10.0 mi North 5.8 mph - N/A   Clear
1:57 PM 42.8 °F 40.1 °F 8.6 °F 25% 30.18 in 10.0 mi NNW 4.6 mph - N/A   Clear
2:17 PM 42.8 °F 40.1 °F 8.6 °F 25% 30.17 in 10.0 mi NNW 4.6 mph - N/A   Clear
2:37 PM 44.6 °F 43.1 °F 10.4 °F 25% 30.17 in 10.0 mi NNW 3.5 mph - N/A   Clear
2:57 PM 46.4 °F 45.2 °F 12.2 °F 25% 30.17 in 10.0 mi NW 3.5 mph - N/A   Clear
3:17 PM 46.4 °F - 12.2 °F 25% 30.17 in 10.0 mi Calm Calm - N/A   Clear
3:37 PM 46.4 °F - 14.0 °F 27% 30.17 in 10.0 mi Calm Calm - N/A   Clear
3:57 PM 46.4 °F - 12.2 °F 25% 30.17 in 10.0 mi Calm Calm - N/A   Clear
4:17 PM 46.4 °F 45.2 °F 12.2 °F 25% 30.18 in 10.0 mi North 3.5 mph - N/A   Clear
4:37 PM 46.4 °F - 12.2 °F 25% 30.18 in 10.0 mi Calm Calm - N/A   Clear
4:57 PM 46.4 °F - 12.2 °F 25% 30.19 in 10.0 mi Calm Calm - N/A   Clear
5:17 PM 46.4 °F - 12.2 °F 25% 30.19 in 10.0 mi Calm Calm - N/A   Clear
5:37 PM 42.8 °F 41.1 °F 15.8 °F 34% 30.20 in 10.0 mi WNW 3.5 mph - N/A   Clear
5:57 PM 42.8 °F 37.0 °F 14.0 °F 31% 30.20 in 10.0 mi WNW 10.4 mph - N/A   Clear
6:17 PM 42.8 °F 36.6 °F 14.0 °F 31% 30.21 in 10.0 mi NW 11.5 mph 17.3 mph N/A   Clear
6:37 PM 42.8 °F 37.5 °F 14.0 °F 31% 30.21 in 10.0 mi NW 9.2 mph - N/A   Clear
6:57 PM 41.0 °F 38.0 °F 14.0 °F 33% 30.22 in 10.0 mi WNW 4.6 mph - N/A   Clear
7:17 PM 41.0 °F 35.8 °F 12.2 °F 31% 30.22 in 10.0 mi West 8.1 mph - N/A   Clear
7:37 PM 41.0 °F 37.1 °F 12.2 °F 31% 30.22 in 10.0 mi West 5.8 mph - N/A   Clear
7:57 PM 37.4 °F - 14.0 °F 38% 30.22 in 10.0 mi Calm Calm - N/A   Clear
8:17 PM 37.4 °F - 12.2 °F 36% 30.22 in 10.0 mi Calm Calm - N/A   Clear
8:37 PM 35.6 °F - 14.0 °F 41% 30.21 in 10.0 mi Calm Calm - N/A   Clear
8:57 PM 35.6 °F - 14.0 °F 41% 30.21 in 10.0 mi Calm Calm - N/A   Clear
9:17 PM 35.6 °F - 14.0 °F 41% 30.20 in 10.0 mi Calm Calm - N/A   Clear
9:37 PM 35.6 °F 32.8 °F 14.0 °F 41% 30.20 in 10.0 mi SW 3.5 mph - N/A   Clear
9:57 PM 33.8 °F - 15.8 °F 48% 30.20 in 10.0 mi Calm Calm - N/A   Clear
10:17 PM 33.8 °F 28.6 °F 15.8 °F 48% 30.20 in 10.0 mi West 5.8 mph - N/A   Clear
10:37 PM 32.0 °F 27.5 °F 17.6 °F 55% 30.20 in 10.0 mi SSW 4.6 mph - N/A   Clear
10:57 PM 32.0 °F - 17.6 °F 55% 30.20 in 10.0 mi Calm Calm - N/A   Clear
11:17 PM 32.0 °F - 17.6 °F 55% 30.20 in 10.0 mi Calm Calm - N/A   Clear
11:37 PM 30.2 °F - 17.6 °F 60% 30.20 in 10.0 mi Calm Calm - N/A   Clear
11:57 PM 32.0 °F - 17.6 °F 55% 30.19 in 10.0 mi Calm Calm - N/A   Clear